Location: *
(46.1866°S, 178.5290°W)
Time: 14:25:00
(UTC+00:00)

Cosmos 1461 - Pass Details

Date: 04 October 2021
Orbit: 520 x 642 km, 65.0° (Epoch: 18 October)

Event Time Altitude Azimuth Distance (km) Brightness Sun altitude
Rises 16:14:29 0° 222° (SW) 2,945 6.3 -11.6°
Reaches altitude 10° 16:16:51 10° 229° (SW) 2,044 5.4 -11.2°
Maximum altitude 16:21:12 41° 298° (WNW) 948 3.5 -10.5°
Drops below altitude 10° 16:25:34 10° 7° (N) 2,046 5.6 -9.8°
Sets 16:27:57 0° 14° (NNE) 2,948 6.5 -9.4°
